Weather History for Bentonville, AR

Change the Weather History Date:

Wednesday, April 17, 2013

  Actual Average Record
Temperature  
Mean Temperature 70 °F -  
Max Temperature 82 °F 71 °F 86 °F (1955)
Min Temperature 59 °F 45 °F 29 °F (1956)
Cooling Degree Days 6    
Growing Degree Days 20 (Base 50)    
Moisture  
Dew Point 61 °F    
Average Humidity 70    
Maximum Humidity 88    
Minimum Humidity 54    
Precipitation  
Precipitation 0.00 in - - ()
Sea Level Pressure  
Sea Level Pressure 29.83 in    
Wind  
Wind Speed 10 mph (SSE)    
Max Wind Speed 22 mph    
Max Gust Speed 28 mph    
Visibility 10 miles    
Events      
Averages and records for this station are not official NWS values.
T = Trace of Precipitation, MM = Missing Value Source: NWS Daily Summary

Daily Weather History Graph

Daily Weather History Graph

Search for Another Location

Airport:

Trip Planner

Search our weather history database for the weather conditions in past years. The results will help you decide how hot, cold, wet, or windy it might be!

Date:

Astronomy

Apr. 17, 2013 Rise Set
Actual Time 6:40 AM CDT 7:52 PM CDT
Civil Twilight 6:13 AM CDT 8:19 PM CDT
Nautical Twilight 5:41 AM CDT 8:51 PM CDT
Astronomical Twilight 5:08 AM CDT 9:24 PM CDT
Moon 11:58 AM CDT (4/17) 1:27 AM CDT (4/17)
Length of Visible Light 14h 05m
Length of Day
13h 12m
Waxing Crescent, 42% of the Moon is Illuminated
Apr 17
Waxing Crescent
Apr 18
First Quarter
Apr 25
Full
May 2
Last Quarter
May 9
New

Hourly Weather History & Observations

Time (CDT) Temp. Heat Index Dew Point Humidity Pressure Visibility Wind Dir Wind Speed Gust Speed Precip Events Conditions
12:15 AM 62.6 °F - 55.4 °F 77% 29.95 in 10.0 mi ENE 6.9 mph - N/A   Overcast
12:35 AM 62.6 °F - 55.4 °F 77% 29.95 in 10.0 mi East 5.8 mph - N/A   Scattered Clouds
12:55 AM 60.8 °F - 55.4 °F 82% 29.95 in 10.0 mi East 5.8 mph - N/A   Clear
1:15 AM 60.8 °F - 53.6 °F 77% 29.95 in 10.0 mi East 6.9 mph - N/A   Clear
1:35 AM 60.8 °F - 53.6 °F 77% 29.94 in 10.0 mi East 4.6 mph - N/A   Clear
1:55 AM 59.0 °F - 53.6 °F 82% 29.94 in 10.0 mi East 4.6 mph - N/A   Clear
2:15 AM 59.0 °F - 53.6 °F 82% 29.94 in 10.0 mi ENE 4.6 mph - N/A   Partly Cloudy
2:35 AM 59.0 °F - 53.6 °F 82% 29.94 in 10.0 mi ENE 4.6 mph - N/A   Clear
2:55 AM 59.0 °F - 53.6 °F 82% 29.93 in 10.0 mi East 5.8 mph - N/A   Scattered Clouds
3:15 AM 59.0 °F - 53.6 °F 82% 29.92 in 10.0 mi East 6.9 mph - N/A   Partly Cloudy
3:35 AM 59.0 °F - 53.6 °F 82% 29.92 in 10.0 mi East 4.6 mph - N/A   Clear
3:55 AM 59.0 °F - 55.4 °F 88% 29.92 in 10.0 mi East 4.6 mph - N/A   Clear
4:15 AM 60.8 °F - 55.4 °F 82% 29.92 in 10.0 mi East 5.8 mph - N/A   Clear
4:35 AM 60.8 °F - 55.4 °F 82% 29.92 in 10.0 mi East 5.8 mph - N/A   Clear
4:55 AM 59.0 °F - 55.4 °F 88% 29.92 in 10.0 mi East 4.6 mph - N/A   Clear
5:15 AM 59.0 °F - 55.4 °F 88% 29.91 in 10.0 mi East 5.8 mph - N/A   Clear
5:35 AM 59.0 °F - 55.4 °F 88% 29.91 in 10.0 mi East 6.9 mph - N/A   Clear
5:55 AM 60.8 °F - 55.4 °F 82% 29.91 in 10.0 mi East 8.1 mph - N/A   Clear
6:15 AM 59.0 °F - 55.4 °F 88% 29.92 in 4.0 mi East 3.5 mph - N/A   Clear
6:35 AM 60.8 °F - 55.4 °F 82% 29.92 in 10.0 mi SSE 6.9 mph - N/A   Mostly Cloudy
6:55 AM 68.0 °F - 64.4 °F 88% 29.91 in 8.0 mi SSE 11.5 mph 16.1 mph N/A   Mostly Cloudy
7:15 AM 69.8 °F - 64.4 °F 83% 29.92 in 9.0 mi South 10.4 mph - N/A   Scattered Clouds
7:35 AM 69.8 °F - 64.4 °F 83% 29.91 in 9.0 mi SSE 12.7 mph - N/A   Scattered Clouds
7:55 AM 71.6 °F - 64.4 °F 78% 29.91 in 10.0 mi South 9.2 mph 17.3 mph N/A   Partly Cloudy
8:15 AM 71.6 °F - 64.4 °F 78% 29.91 in 10.0 mi SSE 15.0 mph - N/A   Clear
8:35 AM 73.4 °F - 64.4 °F 73% 29.92 in 10.0 mi South 12.7 mph 19.6 mph N/A   Partly Cloudy
9:15 AM 73.4 °F - 64.4 °F 73% 29.91 in 10.0 mi South 11.5 mph 19.6 mph N/A   Mostly Cloudy
9:35 AM 73.4 °F - 66.2 °F 78% 29.91 in 10.0 mi South 12.7 mph 18.4 mph N/A   Overcast
9:55 AM 73.4 °F - 66.2 °F 78% 29.91 in 10.0 mi South 15.0 mph 20.7 mph N/A   Overcast
10:15 AM 75.2 °F - 66.2 °F 73% 29.91 in 10.0 mi South 15.0 mph 20.7 mph N/A   Mostly Cloudy
10:35 AM 75.2 °F - 66.2 °F 73% 29.90 in 10.0 mi South 13.8 mph 21.9 mph N/A   Mostly Cloudy
10:55 AM 75.2 °F - 66.2 °F 73% 29.89 in 10.0 mi SSE 17.3 mph 23.0 mph N/A   Partly Cloudy
11:15 AM 75.2 °F - 66.2 °F 73% 29.88 in 10.0 mi South 18.4 mph 21.9 mph N/A   Scattered Clouds
11:35 AM 78.8 °F - 66.2 °F 65% 29.88 in 10.0 mi South 15.0 mph 24.2 mph N/A   Mostly Cloudy
11:55 AM 77.0 °F - 66.2 °F 69% 29.88 in 10.0 mi South 16.1 mph 23.0 mph N/A   Overcast
12:15 PM 75.2 °F - 66.2 °F 73% 29.88 in 10.0 mi South 11.5 mph 23.0 mph N/A   Overcast
12:35 PM 75.2 °F - 66.2 °F 73% 29.87 in 10.0 mi South 12.7 mph 23.0 mph N/A   Overcast
12:55 PM 77.0 °F - 66.2 °F 69% 29.85 in 10.0 mi South 12.7 mph 21.9 mph N/A   Overcast
1:15 PM 77.0 °F - 64.4 °F 65% 29.85 in 10.0 mi South 19.6 mph 24.2 mph N/A   Overcast
1:35 PM 78.8 °F - 64.4 °F 61% 29.84 in 10.0 mi South 17.3 mph 24.2 mph N/A   Overcast
1:55 PM 78.8 °F - 64.4 °F 61% 29.83 in 10.0 mi South 18.4 mph 24.2 mph N/A   Overcast
2:15 PM 78.8 °F - 64.4 °F 61% 29.82 in 10.0 mi SSE 19.6 mph 24.2 mph N/A   Overcast
2:35 PM 78.8 °F - 64.4 °F 61% 29.80 in 10.0 mi South 19.6 mph 24.2 mph N/A   Overcast
2:55 PM 78.8 °F - 64.4 °F 61% 29.80 in 10.0 mi South 15.0 mph 24.2 mph N/A   Overcast
3:35 PM 78.8 °F - 64.4 °F 61% 29.78 in 10.0 mi South 15.0 mph 25.3 mph N/A   Mostly Cloudy
3:55 PM 80.6 °F 82.3 °F 64.4 °F 58% 29.77 in 10.0 mi SSE 20.7 mph 27.6 mph N/A   Overcast
4:15 PM 80.6 °F 81.8 °F 62.6 °F 54% 29.76 in 10.0 mi SSE 21.9 mph 26.5 mph N/A   Overcast
4:35 PM 82.4 °F 83.9 °F 64.4 °F 54% 29.74 in 10.0 mi South 12.7 mph 24.2 mph N/A   Overcast
4:55 PM 82.4 °F 83.9 °F 64.4 °F 54% 29.74 in 10.0 mi South 12.7 mph 24.2 mph N/A   Mostly Cloudy
5:15 PM 80.6 °F 81.8 °F 62.6 °F 54% 29.74 in 10.0 mi South 15.0 mph 23.0 mph N/A   Clear
5:35 PM 80.6 °F 81.8 °F 62.6 °F 54% 29.73 in 10.0 mi South 15.0 mph 25.3 mph N/A   Clear
5:55 PM 80.6 °F 81.8 °F 62.6 °F 54% 29.73 in 10.0 mi South 20.7 mph 26.5 mph N/A   Scattered Clouds
6:15 PM 80.6 °F 81.8 °F 62.6 °F 54% 29.73 in 10.0 mi South 15.0 mph 23.0 mph N/A   Overcast
6:35 PM 78.8 °F - 62.6 °F 57% 29.72 in 10.0 mi South 11.5 mph 21.9 mph N/A   Scattered Clouds
7:15 PM 78.8 °F - 62.6 °F 57% 29.71 in 10.0 mi South 16.1 mph 19.6 mph N/A   Scattered Clouds
7:35 PM 77.0 °F - 60.8 °F 57% 29.70 in 10.0 mi South 11.5 mph 21.9 mph N/A   Partly Cloudy
7:55 PM 77.0 °F - 60.8 °F 57% 29.70 in 10.0 mi SSE 13.8 mph 18.4 mph N/A   Clear
8:15 PM 77.0 °F - 60.8 °F 57% 29.69 in 10.0 mi SSE 11.5 mph - N/A   Clear
8:35 PM 77.0 °F - 60.8 °F 57% 29.70 in 10.0 mi South 10.4 mph - N/A   Scattered Clouds
8:55 PM 77.0 °F - 60.8 °F 57% 29.69 in 10.0 mi South 12.7 mph 18.4 mph N/A   Scattered Clouds
9:15 PM 75.2 °F - 60.8 °F 61% 29.70 in 10.0 mi South 13.8 mph 24.2 mph N/A   Scattered Clouds
9:35 PM 75.2 °F - 60.8 °F 61% 29.69 in 10.0 mi South 12.7 mph 18.4 mph N/A   Scattered Clouds
9:55 PM 75.2 °F - 60.8 °F 61% 29.69 in 10.0 mi South 10.4 mph 19.6 mph N/A   Scattered Clouds
10:15 PM 75.2 °F - 60.8 °F 61% 29.68 in 10.0 mi South 15.0 mph 26.5 mph N/A   Scattered Clouds
10:35 PM 75.2 °F - 60.8 °F 61% 29.66 in 10.0 mi South 13.8 mph 26.5 mph N/A   Partly Cloudy
10:55 PM 75.2 °F - 60.8 °F 61% 29.67 in 10.0 mi South 16.1 mph 25.3 mph N/A   Clear
11:15 PM 75.2 °F - 60.8 °F 61% 29.66 in 10.0 mi South 16.1 mph 24.2 mph N/A   Partly Cloudy
11:35 PM 75.2 °F - 62.6 °F 65% 29.66 in 10.0 mi South 17.3 mph 26.5 mph N/A   Clear
11:55 PM 75.2 °F - 62.6 °F 65% 29.64 in 10.0 mi South 16.1 mph 23.0 mph N/A   Partly Cloudy